Regional Weather Roundup
Issued by NWS

Home | Current Version | Previous Version | Graphics & Text | Print | Product List | Glossary On
Versions: 1 2 3 4 5 6 7 8 9 10 11 12 13 14 15 16 17 18 19 20 21 22 23 24 25 26 27 28 29 30 31 32 33 34 35 36 37 38 39 40 41 42 43 44 45 46 47 48 49 50
000
ASUS43 KOAX 170710
RWRNE

WEATHER ROUNDUP FOR NEBRASKA
NATIONAL WEATHER SERVICE OMAHA NE
200 AM CDT WED SEP 17 2014

NOTES: SATELLITE DATA IS BEING USED TO AUGMENT CLOUD COVER ABOVE
       12000 FEET.
       "FAIR" INDICATES FEW OR NO CLOUDS BELOW 12,000 FEET WITH NO
       SIGNIFICANT WEATHER AND/OR OBSTRUCTIONS TO VISIBILITY.

  * THESE STATIONS DO NOT REPORT WEATHER SUCH AS RAIN...SNOW OR FOG.

NEZ001>004-019>022-054>056-170800-
NEBRASKA PANHANDLE

CITY           SKY/WX    TMP DP  RH WIND       PRES   REMARKS
SCOTTSBLUFF    PTCLDY    57  47  69 E3        30.01S
ALLIANCE       CLEAR     50  45  83 NE8       30.00S
CHADRON        MOCLDY    56  51  84 CALM      29.97S
KIMBALL        PTCLDY    56  42  59 W9        30.07R
SIDNEY         CLEAR     53  47  79 SW8       30.04F
$$

NEZ057>060-069>072-079>082-170800-
SOUTHWEST NEBRASKA

CITY           SKY/WX    TMP DP  RH WIND       PRES   REMARKS
NORTH PLATTE   FOG       50  50 100 CALM      29.97S VSB 1/2
IMPERIAL       CLEAR     55  53  93 CALM      29.98F FOG
LEXINGTON      CLEAR     52  51  95 NE3       29.95F FOG
MCCOOK         CLEAR     55  53  93 N5        29.96S FOG
OGALLALA       CLEAR     57  55  94 NW3       30.00R
$$

NEZ005>010-023>029-035>040-094-170800-
NORTH CENTRAL NEBRASKA

CITY           SKY/WX    TMP DP  RH WIND       PRES   REMARKS
VALENTINE      CLEAR     51  49  92 W6        29.95S
BROKEN BOW     FOG       47  46  97 CALM      29.96S VSB 1/2
O`NEILL        CLEAR     53  53  99 S6        29.95S
ORD            CLEAR     48  47  96 CALM      29.95S
THEDFORD       CLEAR     55  54  96 CALM      29.98R
$$

NEZ041-046>049-061>064-073>077-083>087-170800-
SOUTH CENTRAL NEBRASKA

CITY           SKY/WX    TMP DP  RH WIND       PRES   REMARKS
GRAND ISLAND   CLEAR     57  50  77 S6        29.94F
HASTINGS       CLEAR     59  48  67 S12       29.93F
HEBRON         CLEAR     55  51  87 CALM      29.96S
HOLDREGE       CLEAR     53  49  89 CALM      29.93F
KEARNEY *      CLEAR     55  48  76 SE5       29.95F
YORK           CLEAR     55  52  88 S5        29.95F
$$

NEZ011>018-030>034-042>045-170800-
NORTHEAST NEBRASKA

CITY           SKY/WX    TMP DP  RH WIND       PRES   REMARKS
NORFOLK        CLEAR     51  49  92 CALM      29.95F
ALBION         CLEAR     51  48  89 CALM      29.96R
BLAIR          CLOUDY    62  53  71 SE7       29.97S
COLUMBUS *     CLEAR     52  48  87 SE5       29.96F
FREMONT        CLOUDY    63  52  68 SE7       29.97F
TEKAMAH        CLOUDY    59  53  80 SE3       29.97F
WAYNE          PTCLDY    50  48  94 CALM      29.97S
$$

NEZ050>053-065>068-078-088>093-170800-
SOUTHEAST NEBRASKA

CITY           SKY/WX    TMP DP  RH WIND       PRES   REMARKS
LINCOLN        MOCLDY    61  53  75 SE8       29.97F
OMAHA EPPLEY   CLOUDY    63  52  67 S8        29.98S
BEATRICE       CLOUDY    63  54  74 SE6       29.96F
FALLS CITY     CLOUDY    62  55  77 SE5       29.97F
NEBRASKA CITY  CLOUDY    60  51  71 S5        29.98S
PLATTSMOUTH    CLOUDY    61  51  71 SE6       29.98S
$$

NEZ044-045-051>053-067-170800-
OMAHA AREA

CITY           SKY/WX    TMP DP  RH WIND       PRES   REMARKS
OMAHA EPPLEY   CLOUDY    63  52  67 S8        29.98S
BLAIR          CLOUDY    62  53  71 SE7       29.97S
FREMONT        CLOUDY    63  52  68 SE7       29.97F
MILLARD        CLOUDY    62  54  75 SE5       29.97F
OFFUTT AFB     CLOUDY    60  60  98 SE6       29.97F
PLATTSMOUTH    CLOUDY    61  51  71 SE6       29.98S
WAHOO          CLOUDY    59  53  80 E3        29.96F
$$



USA.gov is the U.S. government's official web portal to all federal, state and local government web resources and services.